EXPRESS AM-1

Satellite information

Favourite Embed

Satellite Type and Status

PAYLOADIN ORBIT

Key statistics

Satellite EXPRESS AM-1 at a glance.

Uptime

7677

Days in orbit

Revolutions

≈ 1.0

Per day

Orbit

OTHER

Other

Inclination

11.0

Latest

Satellite identification and parameters

Extended collection of information and parameters for EXPRESS AM-1.

Object identification

Identified? True

Debris? False

Object name: EXPRESS AM-1

International designator: 2004-043A

Object number (NORAD): 28463

Object ID (CCSDS): 28463

Country: COMMONWEALTH OF INDEPENDENT STATES (CIS)

Current information (Y/N): Y

RCS size: MEDIUM

Orbital parameters

Period: 1451.687 minutes

Inclination: 11.0252 deg

SMA: 42469.343 km

Apoapsis: 36146.175 km

Periapsis: 36036.242 km

RAAN: 41.8262 deg

Eccentricy: 0.00129427

Argument of periapsis: 225.4522 deg

Mean anomaly: 153.7007 deg

Mean motion: 0.99194923 rev/day

Mean motion (dot): -0.00000029 rev/day2

B* drag term: 0.0 1/REarth

Two-line elements (TLE)

Creation date: Nov. 2, 2025, 5:34 p.m.

Reference frame: TEME

Reference center: EARTH

Epoch: Nov. 1, 2025, 11:49 p.m. UTC

TLE line 0: 0 EXPRESS AM-1

TLE line 1: 1 28463U 04043A 25305.99280921 -.00000029 00000-0 00000-0 0 9991

TLE line 2: 2 28463 11.0252 41.8262 0012943 225.4522 153.7007 0.99194923 76462

Live tracking on map

Real-time ground track for satellite EXPRESS AM-1.

In-orbit conjunctions

There are no conjunctions computed for EXPRESS AM-1, at the moment. Check back to stay up to date, as we update our databases every day.

Go to all conjunctions

Associated space launch

The Ekspress-AM 1 is a communications satellite for russian domestic communication services. The lifetime of the spacecraft has been increased to 12 years. While the spacecraft itself is built by russian RSCC (Kosmicheskiya Svyaz), the communication payloads is built by NEC.

EXPRESS AM-1 was lifted into orbit during the mission ‘Proton-K/DM-2M | Ekspress AM-1’, on board a Proton-K/DM-2M space rocket.

The launch took place on Oct. 29, 2004, 10:11 p.m. from 200/39 (200L).

For more information about the launch, click the button.

Launch to space Proton-K/DM-2M | Ekspress AM-1
Proton-K/DM-2M | Ekspress AM-1

Agency: N/A

Status: Launch Successful

Launch date: Oct. 29, 2004, 10:11 p.m. UTC

Rocket: Proton-K/DM-2M

Launch pad: 200/39 (200L)

Location: Baikonur Cosmodrome, Republic of Kazakhstan

...

Latest news about this satellite

There are no fresh news available about this satellite. Check back as we update our databases every day.


Newsletter sign-up

Weekly statistics, charts and insights to help you stay on top of the space industry.